Meath Environmental Platform

Observations for Trim Market St

Time AQI Temp °C Hum % Pres Pa CO μg/m³ H₂S μg/m³ NO μg/m³ NO₂ μg/m³ O₃ μg/m³ SO₂ μg/m³ PM1 μg/m³ PM2.5 μg/m³ PM10 μg/m³
Tuesday 25 August 2026
08:20 2 21.6 64 57,118 0.33 0 2.57 10.16 33.98 0 0.71 3.33 6.21
08:18 2 21.3 65 56,992 0.38 0 1.99 10.4 33.7 0 1.43 3.8 6.87
08:17 2 21.2 65 56,951 0.55 0 1.61 12.98 33.14 0 2.14 4.28 6.87
08:16 2 21 65 56,923 0.3 0 1.22 9.58 34.67 0 0.71 3.29 4.91
08:15 2 20.9 65 56,876 0.28 0 1.2 8.59 35.89 0 1.43 3.77 5.57
08:14 2 20.8 66 56,818 0.28 0 1.23 9.08 36.51 0 0.71 2.77 4.92
08:13 2 20.7 66 56,785 0.3 0 1.3 8.06 34.19 0 0.71 3.75 7.53
08:10 2 20.4 66 56,698 0.32 0 1.41 8.68 28.92 0 1.43 3.24 6.23
08:09 2 20.4 66 56,698 0.36 0 1.26 8.41 27.23 0 0.71 2.74 4.29
08:04 2 20.4 67 56,549 0.46 0 1.66 8.61 22.59 0 0.71 2.69 4.32
08:02 2 20.3 68 56,270 0.51 0 1.69 8.49 20.55 0 1.43 3.64 5.61
07:59 2 20.3 69 55,520 0.56 0 1.97 11.05 22.76 0 1.43 3.58 6.9
07:55 2 20 71 53,106 0.59 0 1.69 13.5 23.05 0 0.71 2.51 4.43
07:50 2 19.3 73 47,480 0.6 0 1.43 20.57 26.37 0 0.71 2.89 5.1
07:49 2 19.2 74 45,496 0.61 0 1.44 17.91 22.42 0 0.71 2.87 5.72
07:48 2 19 74 42,916 0.62 0 1.61 24.55 26.65 0 1.43 2.86 5.73
07:47 2 18.9 75 39,905 0.6 0 1.49 23.43 27.02 0 1.43 2.84 6.33
07:46 2 18.8 75 36,655 0.61 0 1.54 25.6 27.84 0 0.71 3.3 6.93
07:45 2 18.6 75 33,620 0.61 0 1.59 28.78 31.89 0 0.71 2.8 6.34
07:44 2 18.5 76 30,738 0.59 0 1.67 28.18 31.47 0 1.43 3.27 5.75